Location: Krakow
(50.0830°N, 19.9170°E)
Time: 19:05:41
(UTC+01:00)

SR - Pass Details

Date: 09 February 2023
Orbit: 582 x 867 km, 66.7° (Epoch: 20 March)

Event Time Altitude Azimuth Distance (km) Brightness Sun altitude
Rises 13:59:47 0° 237° (WSW) 3,155 ? 19.7°
Reaches altitude 10° 14:02:21 10° 245° (WSW) 2,187 ? 19.4°
Maximum altitude 14:07:01 41° 315° (NW) 981 ? 19.0°
Drops below altitude 10° 14:11:22 10° 26° (NNE) 2,034 ? 18.6°
Sets 14:13:42 0° 34° (NE) 2,909 ? 18.4°
